Home > Weather > Vallejo > Past weeks

Flag for U.S.A. Weather for the Past 2 Weeks in Vallejo, California, U.S.A.

Now
63 °F

Sunny.


Feels Like: 63 °F
Forecast: 48 / 66 °F
Wind: 5 mph from West

Location: Napa County Airport

Current Time: Feb 11, 2016 at 5:44:51 PM

Latest Report: Feb 11, 2016 at 4:54 PM


Visibility: 10 mi

Pressure: 30.10 "Hg

Humidity: 68%

Dew point: 52 °F

Location of VallejoLocation

Historic Weather in Vallejo — Graph

°F

Vallejo Temperature Yesterday

Maximum temperature yesterday: 68 °F (at 2:54 PM)
Minimum temperature yesterday: 39 °F (at 6:54 AM)
Average temperature yesterday: 53 °F

High & Low Weather Summary for the Past Weeks

 TemperatureHumidityPressure
High122 °F (Jan 31, 4:54 PM)100% (Jan 28, 12:54 AM)30.45 "Hg (Jan 28, 12:54 AM)
Low35 °F (Feb 6, 6:54 AM)4% (Jan 31, 4:54 PM)29.72 "Hg (Jan 31, 2:54 PM)
Average54 °F76%30.19 "Hg
* Reported Jan 27 3:54 PM — Feb 11 3:54 PM, Vallejo, Weather by CustomWeather, © 2016

Note: Actual official high and low records may vary slightly from our data, if they occured in-between our weather recording intervals... More about our weather records

Advertising

Vallejo Weather History for the Previous 24 Hours

 ConditionsComfort  
Time TempWeatherWind HumidityBarometerVisibility
3:54 PM
Thu, Feb 11
69 °FSunny.6 mph57%30.09 "Hg10 mi
2:54 PM68 °FSunny.13 mph59%30.08 "Hg10 mi
12:54 PM66 °FSunny.13 mph63%30.09 "Hg10 mi
11:54 AM68 °FSunny.13 mph57%30.12 "Hg10 mi
10:54 AM64 °FSunny.No wind61%30.14 "Hg10 mi
9:54 AM57 °FSunny.3 mph78%30.16 "Hg10 mi
8:54 AM55 °FSunny.3 mph83%30.13 "Hg10 mi
7:54 AM51 °FSunny.5 mph89%30.13 "Hg10 mi
6:54 AM49 °FClear.No wind90%30.12 "Hg10 mi
5:54 AM49 °FClear.No wind90%30.12 "Hg10 mi
4:54 AM48 °FClear.5 mph89%30.10 "Hg10 mi
3:54 AM49 °FClear.3 mph90%30.11 "Hg10 mi
2:54 AM49 °FClear.8 mph93%30.11 "Hg10 mi
1:54 AM48 °FClear.8 mph93%30.12 "Hg10 mi
12:54 AM50 °FClear.6 mph89%30.13 "Hg10 mi
11:54 PM
Wed, Feb 10
50 °FClear.3 mph93%30.14 "Hg10 mi
10:54 PM50 °FClear.No wind89%30.14 "Hg10 mi
9:54 PM49 °FClear.3 mph90%30.13 "Hg10 mi
8:54 PM52 °FClear.No wind86%30.13 "Hg10 mi
7:54 PM55 °FClear.3 mph80%30.12 "Hg10 mi
6:54 PM61 °FClear.5 mph70%30.13 "Hg10 mi
5:54 PM62 °FClear.5 mph65%30.13 "Hg10 mi
Weather by CustomWeather, © 2016

See weather overviewHow to use our weather pages